Observations for Trim Market St
| Time | AQI | Temp °C | Hum % | Pres Pa | CO μg/m³ | H₂S μg/m³ | NO μg/m³ | NO₂ μg/m³ | O₃ μg/m³ | SO₂ μg/m³ | PM1 μg/m³ | PM2.5 μg/m³ | PM10 μg/m³ |
|---|---|---|---|---|---|---|---|---|---|---|---|---|---|
| Monday 13 July 2026 | |||||||||||||
| 07:59 | 1 | 23.7 | 57 | 57,769 | 0.07 | 0 | 0.61 | 0 | 1.02 | 0 | 2.85 | 5.67 | 8.23 |
| 07:58 | 1 | 23.6 | 58 | 57,761 | 0.09 | 0 | 0 | 0 | 1.29 | 0 | 3.56 | 5.14 | 6.83 |
| 07:55 | 1 | 23.4 | 59 | 57,736 | 0.09 | 0 | 0.49 | 0 | 4.37 | 0 | 2.14 | 5.09 | 6.83 |
| 07:54 | 1 | 23.3 | 59 | 57,725 | 0.12 | 0 | 0 | 0 | 2.78 | 0 | 2.85 | 4.58 | 6.84 |
| 07:53 | 1 | 23.2 | 59 | 57,713 | 0.11 | 0 | 0 | 0 | 2.34 | 0 | 2.85 | 5.56 | 8.22 |
| 07:52 | 1 | 23.1 | 60 | 57,700 | 0.12 | 0 | 0 | 0 | 0 | 0 | 3.56 | 5.05 | 7.53 |
| 07:50 | 1 | 23 | 60 | 57,670 | 0.11 | 0 | 0.11 | 0 | 4.12 | 0 | 2.85 | 5.52 | 8.21 |
| 07:48 | 1 | 22.8 | 61 | 57,628 | 0.12 | 0 | 0 | 0 | 5.78 | 0 | 2.14 | 3.99 | 5.48 |
| 07:46 | 1 | 22.6 | 61 | 57,603 | 0.08 | 0 | 0 | 0 | 4.74 | 0 | 1.43 | 3.96 | 6.17 |
| 07:45 | 1 | 22.5 | 62 | 57,586 | 0.11 | 0 | 1.33 | 0 | 3.32 | 0 | 2.85 | 4.44 | 7.53 |
| 07:39 | 1 | 22 | 63 | 57,455 | 0.11 | 0 | 0.87 | 0 | 7.63 | 0 | 2.14 | 4.87 | 6.86 |
| 07:34 | 1 | 21.5 | 64 | 57,294 | 0.12 | 0 | 0.04 | 0 | 4.58 | 0 | 1.43 | 2.83 | 4.22 |
| 07:31 | 1 | 21.3 | 65 | 57,235 | 0.11 | 0 | 1.05 | 0 | 8.22 | 0 | 2.14 | 4.29 | 7.53 |
| 07:30 | 1 | 21.2 | 65 | 57,206 | 0.12 | 0 | 0 | 0 | 7.95 | 0 | 2.85 | 5.26 | 8.19 |
| 07:29 | 1 | 21.2 | 65 | 57,174 | 0.1 | 0 | 0.4 | 0 | 4.4 | 0 | 1.43 | 3.77 | 6.87 |
| 07:28 | 1 | 21.1 | 66 | 57,129 | 0.12 | 0 | 0.58 | 0 | 5.41 | 0 | 2.85 | 4.25 | 7.53 |
| 07:27 | 1 | 21 | 66 | 57,073 | 0.11 | 0 | 0 | 0 | 7.36 | 0 | 1.43 | 3.74 | 5.57 |
| 07:26 | 1 | 21 | 66 | 57,016 | 0.11 | 0 | 0 | 0 | 4.45 | 0 | 2.14 | 4.22 | 6.23 |
| 07:25 | 1 | 20.9 | 66 | 56,959 | 0.13 | 0 | 1 | 0 | 3.88 | 0 | 2.14 | 4.21 | 6.23 |
| 07:24 | 1 | 20.8 | 67 | 56,907 | 0.13 | 0 | 0 | 0 | 3.33 | 0 | 2.14 | 3.21 | 4.94 |